[[{"header":{"parameterUnit":"m.s-1","parameterCategory":1,"la1":30.2991,"la2":30.254,"lo1":-89.0895,"lo2":-89.0444,"dy":0.0017,"dx":0.0017,"nx":28,"ny":28,"refTime":"2024-08-16T03:00:00:Z","depth":0,"parameterNumber":2,"parameterNumberName":"U-component_of_WINDS"},"data":[0,0,0,0,0,0,0,0,0,0,0,0,0,0,0,0,0,0,0,0,0,0,0,0,0,0,0,0,0,0,0,0,0,0,0,0,0,0,0,0,0,0,0,0,0,0,0,0,0,0,0,0,0,0,0,0,0,0,0.6141,0.6142,0,0.618,0.618,0.618,0.6209,0.6209,0.6209,0.6209,0.6247,0.6248,0.6249,0,0,0,0,0,0,0,0,0,0,0,0,0,0.6091,0.6092,0.6141,0.6142,0.6142,0.6179,0.618,0.6181,0.6209,0.6209,0.6209,0.6209,0.6247,0.6248,0.6249,0,0,0,0,0,0,0,0,0,0,0,0,0,0.6119,0.6092,0.6141,0.6161,0.6163,0.6179,0.618,0.6181,0.6208,0.6209,0.6209,0.621,0.6247,0.6248,0.6249,0.6249,0,0,0.6253,0.6253,0,0,0,0,0,0,0,0,0.6118,0.6121,0.6157,0.6159,0.6162,0.619,0.6176,0.6203,0.6208,0.6191,0.6209,0.621,0.6228,0.6231,0.6237,0.6251,0.6252,0.6253,0.6253,0.6254,0.6254,0,0,0,0,0,0,0,0.6116,0.612,0.6156,0.6158,0.6161,0.6167,0.6171,0.6181,0.6207,0.6193,0.6195,0.6199,0.6229,0.6236,0.6238,0.6253,0.6253,0.6254,0.6254,0.6255,0.6267,0.6267,0,0,0,0,0,0,0.6111,0.6118,0.6155,0.6158,0.614,0.6168,0.6173,0.618,0.6207,0.6211,0.6199,0.62,0.6233,0.6237,0.6239,0.624,0.6254,0.6255,0.6256,0.6267,0.6267,0.6267,0,0,0,0,0,0,0.611,0.6114,0.6154,0.6138,0.6144,0.6168,0.6177,0.6181,0.6188,0.6211,0.6216,0.6201,0.6234,0.6238,0.6246,0.6242,0.6256,0.6257,0.6268,0.6267,0.6267,0.6242,0,0,0,0,0,0,0.6108,0.6113,0.6114,0.6138,0.6145,0.616,0.6176,0.6181,0.619,0.6192,0.6215,0.6219,0.6234,0.6244,0.6247,0.6244,0.6258,0.6268,0.6268,0.6267,0.6243,0.624,0.6238,0,0,0,0,0,0.6106,0.6105,0.6114,0.6118,0.6146,0.616,0.6163,0.6182,0.6189,0.619,0.6205,0.6218,0.6242,0.6245,0.6249,0.6245,0.6269,0.6268,0.6267,0.6244,0.6241,0.6238,0,0,0,0,0,0,0.608,0.6109,0.6119,0.6126,0.614,0.6165,0.6166,0.6178,0.6191,0.6192,0.6214,0.6219,0.6225,0.6236,0.6239,0.6246,0.6257,0.6257,0.6238,0.6235,0.6233,0.623,0.6259,0,0,0,0,0,0.6075,0.6084,0.6109,0.6113,0.612,0.6141,0.6148,0.6161,0.6177,0.6183,0.6199,0.6213,0.6224,0.623,0.6241,0.6245,0.625,0.6244,0.6242,0.624,0.6239,0.6241,0.6238,0.6264,0.6264,0.6264,0,0,0.6064,0.6082,0.6086,0.6108,0.6121,0.6129,0.6146,0.6155,0.6161,0.6184,0.6193,0.6205,0.6222,0.6228,0.6231,0.6237,0.6233,0.6239,0.6237,0.6237,0.6239,0.6237,0.6235,0.6263,0.6263,0.6263,0,0,0.605,0.6064,0.6069,0.6081,0.61,0.6114,0.6115,0.6138,0.6147,0.6156,0.6173,0.6181,0.6199,0.621,0.6218,0.6207,0.6219,0.621,0.6197,0.6198,0.6196,0.6195,0.619,0.6188,0.621,0.621,0.621,0,0.6035,0.6049,0.6069,0.6076,0.6085,0.6106,0.611,0.6121,0.6143,0.6148,0.6155,0.6177,0.6191,0.6199,0.6196,0.6202,0.6203,0.6208,0.6195,0.6194,0.6192,0.6188,0.6186,0.6208,0.6209,0.6209,0.6209,0,0.6028,0.6038,0.6039,0.6059,0.6068,0.6074,0.6094,0.6101,0.6112,0.6126,0.6134,0.6151,0.6165,0.6168,0.618,0.6178,0.6181,0.6191,0.6202,0.6188,0.6184,0.6183,0.6207,0.6207,0.6207,0.6208,0,0,0.5998,0.603,0.603,0.6039,0.6061,0.6068,0.6074,0.6089,0.6093,0.6107,0.6112,0.6127,0.6136,0.6145,0.6159,0.616,0.6149,0.617,0.6171,0.6164,0.6145,0.6137,0.6135,0.6157,0.6157,0.6157,0.6144,0,0.5987,0.5999,0.6018,0.6024,0.6032,0.6052,0.6058,0.6071,0.6084,0.6092,0.6106,0.6115,0.6128,0.6133,0.6135,0.6149,0.6145,0.6151,0.6161,0.6161,0.6155,0.6133,0.6124,0.6111,0.6142,0.6142,0.6142,0,0.5975,0.5988,0.5995,0.6016,0.602,0.6024,0.6038,0.6047,0.6062,0.6071,0.6081,0.6095,0.6102,0.6113,0.6121,0.6125,0.613,0.6138,0.6138,0.6139,0.615,0.6132,0.6107,0.6105,0.614,0.614,0.614,0,0.5951,0.597,0.5977,0.5984,0.6009,0.6011,0.6021,0.6038,0.6045,0.6057,0.6061,0.6074,0.6081,0.609,0.6107,0.6113,0.6113,0.6126,0.612,0.6119,0.6118,0.6118,0.6093,0.6123,0.6123,0.6123,0.6123,0,0.5935,0.5939,0.5966,0.597,0.5974,0.5994,0.5998,0.601,0.6024,0.603,0.6048,0.6053,0.6075,0.6083,0.6096,0.6101,0.6104,0.611,0.6114,0.6108,0.6107,0.6111,0.6112,0.6123,0.6123,0.6123,0.6123,0,0.5909,0.5928,0.5936,0.5959,0.5964,0.5966,0.5985,0.5989,0.6003,0.601,0.6013,0.6034,0.6043,0.6061,0.6076,0.6085,0.6086,0.6093,0.6081,0.6083,0.6075,0.6075,0.6051,0.6049,0.6081,0.6081,0.6081,0,0.5898,0.5901,0.5924,0.5929,0.5939,0.5947,0.5955,0.5975,0.5981,0.5999,0.6001,0.6012,0.6022,0.6036,0.6052,0.6063,0.6069,0.606,0.6071,0.6065,0.6067,0.6067,0.6066,0.6057,0.6057,0.6056,0.6056,0,0.5875,0.5884,0.5894,0.5907,0.5915,0.5926,0.5938,0.5942,0.5964,0.5971,0.5981,0.5988,0.6003,0.6013,0.6027,0.6037,0.6049,0.6052,0.6051,0.6045,0.6038,0.6041,0.6073,0.6053,0.6053,0.6053,0.6053,0.6054,0.5855,0.5858,0.5875,0.5885,0.5896,0.5907,0.5911,0.5925,0.5934,0.5948,0.5959,0.5968,0.5983,0.6002,0.6011,0.6017,0.6024,0.6023,0.6022,0.6021,0.6018,0.6038,0.602,0.602,0.602,0.602,0.602,0,0.5832,0.5844,0.5853,0.5869,0.5877,0.5889,0.5903,0.5909,0.5916,0.5929,0.5938,0.5949,0.5959,0.5976,0.5987,0.5989,0.5995,0.5991,0.599,0.5992,0.6013,0.6012,0.5985,0.5985,0.5985,0.5985,0.5985,0.5985,0.5821,0.5827,0.5838,0.5849,0.586,0.5869,0.5876,0.5885,0.5895,0.5907,0.5915,0.5926,0.594,0.5952,0.5961,0.5966,0.5968,0.5962,0.5968,0.5987,0.5991,0.5994,0.5993,0.5963,0.5963,0.5947,0.5947,0.5947]},{"header":{"parameterUnit":"m.s-1","parameterCategory":1,"la1":30.2991,"la2":30.254,"lo1":-89.0895,"lo2":-89.0444,"dy":0.0017,"dx":0.0017,"nx":28,"ny":28,"refTime":"2024-08-16T03:00:00:Z","depth":0,"parameterNumber":3,"parameterNumberName":"V-component_of_WINDS"},"data":[0,0,0,0,0,0,0,0,0,0,0,0,0,0,0,0,0,0,0,0,0,0,0,0,0,0,0,0,0,0,0,0,0,0,0,0,0,0,0,0,0,0,0,0,0,0,0,0,0,0,0,0,0,0,0,0,0,0,0.5367,0.5367,0,0.5352,0.5352,0.5352,0.5368,0.5368,0.5369,0.537,0.5354,0.5353,0.5352,0,0,0,0,0,0,0,0,0,0,0,0,0,0.5407,0.5406,0.5367,0.5367,0.5366,0.5352,0.5352,0.5352,0.5368,0.5368,0.5369,0.537,0.5354,0.5353,0.5352,0,0,0,0,0,0,0,0,0,0,0,0,0,0.5391,0.5406,0.5367,0.5373,0.5373,0.5352,0.5352,0.5352,0.5368,0.5369,0.5369,0.537,0.5354,0.5353,0.5351,0.5324,0,0,0.5347,0.5346,0,0,0,0,0,0,0,0,0.5392,0.5389,0.5372,0.5372,0.5373,0.5363,0.5361,0.5343,0.5367,0.537,0.537,0.5371,0.5356,0.5354,0.535,0.5323,0.5323,0.5347,0.5346,0.5345,0.5345,0,0,0,0,0,0,0,0.5393,0.539,0.5361,0.5372,0.5372,0.5376,0.5374,0.5357,0.5358,0.5369,0.5371,0.5369,0.5356,0.5351,0.5349,0.5322,0.5347,0.5346,0.5345,0.5344,0.5273,0.5272,0,0,0,0,0,0,0.5393,0.5391,0.5362,0.5361,0.5385,0.5374,0.5373,0.5365,0.5358,0.5358,0.5368,0.537,0.5353,0.5351,0.5349,0.5317,0.5345,0.5344,0.5343,0.5274,0.5273,0.5272,0,0,0,0,0,0,0.5394,0.5391,0.5362,0.5376,0.5373,0.5373,0.5364,0.5364,0.5359,0.5357,0.5357,0.5363,0.5354,0.5351,0.533,0.5316,0.5343,0.5342,0.5276,0.5274,0.5273,0.5252,0,0,0,0,0,0,0.5395,0.5391,0.5381,0.5376,0.5372,0.5344,0.5363,0.5363,0.5357,0.5359,0.5352,0.5352,0.5354,0.5332,0.5329,0.5315,0.5341,0.5277,0.5275,0.5273,0.5254,0.525,0.5246,0,0,0,0,0,0.5397,0.5375,0.538,0.5376,0.5359,0.5343,0.5341,0.5345,0.5355,0.5345,0.5344,0.5352,0.5318,0.533,0.5326,0.5311,0.5278,0.5275,0.5273,0.5255,0.525,0.5246,0,0,0,0,0,0,0.5378,0.5374,0.538,0.5356,0.535,0.5346,0.5333,0.5339,0.533,0.5332,0.5337,0.5335,0.5313,0.531,0.5323,0.5285,0.53,0.5297,0.5287,0.5283,0.5279,0.528,0.5339,0,0,0,0,0,0.5371,0.5358,0.5356,0.5335,0.5332,0.5333,0.5326,0.533,0.5323,0.532,0.5318,0.5311,0.5299,0.5291,0.5279,0.5253,0.5252,0.5241,0.5238,0.5235,0.5232,0.5218,0.5213,0.5265,0.5265,0.5265,0,0,0.5356,0.5353,0.5345,0.5331,0.5327,0.5314,0.5331,0.5316,0.5306,0.5318,0.5299,0.5296,0.5289,0.5265,0.5255,0.5262,0.5217,0.5232,0.5229,0.5228,0.5215,0.521,0.5206,0.5263,0.5264,0.5264,0,0,0.5323,0.5319,0.5302,0.5297,0.529,0.5291,0.5287,0.5282,0.5281,0.5262,0.5271,0.5259,0.5238,0.5233,0.5227,0.5192,0.5199,0.5188,0.5169,0.5156,0.5152,0.5148,0.5136,0.5131,0.5186,0.5186,0.5186,0,0.5306,0.5287,0.5292,0.5277,0.527,0.5281,0.5263,0.5258,0.5248,0.5244,0.5252,0.5226,0.5222,0.5198,0.5189,0.5184,0.518,0.5189,0.5152,0.5148,0.5145,0.5133,0.5129,0.5184,0.5185,0.5185,0.5185,0,0.5266,0.5252,0.5239,0.5229,0.5222,0.5205,0.5207,0.5199,0.5203,0.5203,0.5183,0.5179,0.5167,0.5161,0.5165,0.5137,0.5142,0.5151,0.5166,0.5139,0.5128,0.5123,0.5183,0.5183,0.5183,0.5184,0,0,0.522,0.5214,0.5209,0.5205,0.5198,0.5188,0.5172,0.5161,0.5153,0.5146,0.5132,0.5115,0.5123,0.5117,0.512,0.5108,0.5081,0.5119,0.5119,0.5112,0.5051,0.5044,0.5039,0.5086,0.5085,0.5085,0.5051,0,0.5186,0.5159,0.5163,0.5137,0.5125,0.5135,0.5121,0.5115,0.5115,0.5104,0.5104,0.5091,0.5103,0.5099,0.5088,0.5087,0.5069,0.5089,0.5073,0.5073,0.5075,0.5033,0.5025,0.4994,0.5047,0.5046,0.5046,0,0.5144,0.5136,0.5108,0.5104,0.5099,0.5086,0.5077,0.5066,0.506,0.5061,0.5054,0.506,0.5043,0.5059,0.5037,0.505,0.5044,0.5043,0.5042,0.504,0.5057,0.503,0.4984,0.498,0.5039,0.504,0.504,0,0.5113,0.5095,0.5076,0.5072,0.5067,0.5058,0.5055,0.505,0.5043,0.5035,0.5031,0.502,0.5014,0.5006,0.5008,0.502,0.4986,0.5001,0.4986,0.4985,0.4978,0.4978,0.493,0.4974,0.4974,0.4974,0.4974,0,0.5076,0.5058,0.5063,0.5051,0.5032,0.5037,0.5018,0.5016,0.5012,0.5,0.5008,0.4997,0.5001,0.499,0.4991,0.4973,0.497,0.497,0.4971,0.4969,0.4969,0.4965,0.4967,0.4973,0.4973,0.4973,0.4973,0,0.5038,0.504,0.502,0.5017,0.5016,0.5002,0.4999,0.4988,0.4989,0.4974,0.497,0.4971,0.4958,0.496,0.4946,0.4947,0.4924,0.4927,0.4926,0.4927,0.4911,0.4912,0.4858,0.4852,0.49,0.4899,0.4899,0,0.5014,0.5001,0.4996,0.4989,0.4986,0.4974,0.4968,0.4972,0.4965,0.4957,0.4947,0.4935,0.4926,0.4905,0.4904,0.4893,0.4897,0.4878,0.4895,0.4894,0.4896,0.4897,0.4896,0.4875,0.4875,0.4874,0.4874,0,0.497,0.4972,0.4963,0.4953,0.4945,0.4938,0.4931,0.4925,0.4929,0.492,0.4907,0.49,0.4886,0.4874,0.4864,0.4861,0.4868,0.4869,0.4864,0.4863,0.4863,0.4863,0.4917,0.487,0.487,0.487,0.4871,0.4871,0.4939,0.4928,0.4923,0.4912,0.4908,0.4902,0.4891,0.4891,0.488,0.4869,0.4873,0.4858,0.4853,0.484,0.4836,0.4825,0.4832,0.4825,0.4824,0.4822,0.482,0.4865,0.4823,0.4823,0.4823,0.4824,0.4824,0,0.4896,0.4894,0.4883,0.4874,0.4865,0.4873,0.4867,0.4859,0.4846,0.4841,0.4832,0.4817,0.4806,0.4804,0.4793,0.4785,0.4788,0.4782,0.4782,0.4782,0.4815,0.482,0.478,0.478,0.478,0.478,0.478,0.478,0.4873,0.4855,0.4856,0.4836,0.4834,0.482,0.4816,0.481,0.4806,0.4789,0.478,0.4779,0.4775,0.4764,0.4754,0.4754,0.475,0.4743,0.4744,0.4775,0.4779,0.4783,0.4788,0.4742,0.4742,0.4711,0.4711,0.4711]}]]